sat.trackr.live / text

‹ back to catalog

IRIDE-MS1-EAGLET 2-16

NORAD 68452 · 2026-067AN

PAYLOAD ACTIVE UNKNOWN

§ Identity

Operator
Country
IT
Launch date
2026-03-30
Launch site
AFWTR
Launch vehicle
Mass (kg)
RCS (m²)

External: N2YO · Heavens-Above · Gunter

§ Orbital elements

Epoch: 2026-05-25T03:45:34.769088Z

Period
94.88 min
Inclination
97.4533°
Eccentricity
0.0005374
Mean motion
15.17776828 rev/d
Perigee alt
508.9 km
Apogee alt
516.3 km
Semi-major
6,890.7 km
B*
3.4471e-4
RAAN
103.9203°
Arg perigee
126.8862°
Mean anomaly
233.2865°
Rev number
844

§ Raw data

IRIDE-MS1-EAGLET 2-161 68452U 26067AN  26145.15665242  .00006901  00000+0  34471-3 0  99922 68452  97.4533 103.9203 0005374 126.8862 233.2865 15.17776828  8445

JSON: /api/v1/satellites/68452 · /tle

For live sub-satellite position, see the globe view (requires WebGL).

§ Visibility from observer

Set your observer location to see the next 7 days of passes ≥ 10°. The values pass through the URL so the page stays shareable.

No JS? Fill the form by hand. The geolocation button needs JavaScript.